This is the latest recevied weather packets stored in our database for station/object N9DMT-13. If no packets are shown the sender has not sent any weather packets the latest 1 day(s).
| Time | Temp. | Humidity | Pressure | Rain* | Wind** | Luminosity | Snow |
|---|---|---|---|---|---|---|---|
| 1778025531 | 10° C | 41% | 978 hPa | 0 mm | 0 m/s | - | - |
| 1778025231 | 10.56° C | 41% | 977.8 hPa | 0 mm | 0 m/s | - | - |
| 1778024929 | 10.56° C | 40% | 977.9 hPa | 0 mm | 0 m/s | - | - |
| 1778024629 | 10.56° C | 39% | 977.9 hPa | 0 mm | 0.45 m/s, 240° | - | - |
| 1778024328 | 10.56° C | 37% | 977.6 hPa | 0 mm | 0 m/s | - | - |
| 1778024027 | 11.11° C | 37% | 977.8 hPa | 0 mm | 0.45 m/s, 302° | - | - |
| 1778023726 | 11.11° C | 37% | 977.8 hPa | 0 mm | 0.45 m/s, 67° | - | - |
| 1778023426 | 11.11° C | 37% | 977.8 hPa | 0 mm | 0.45 m/s, 128° | - | - |
| 1778023125 | 11.11° C | 38% | 977.9 hPa | 0 mm | 0.45 m/s, 261° | - | - |
| 1778022824 | 11.67° C | 37% | 977.9 hPa | 0 mm | 0.89 m/s, 2° | - | - |
| 1778022523 | 11.11° C | 39% | 977.8 hPa | 0 mm | 0 m/s | - | - |
| 1778022222 | 11.11° C | 36% | 977.9 hPa | 0 mm | 0.45 m/s, 11° | - | - |
| 1778021922 | 11.67° C | 37% | 978.2 hPa | 0 mm | 0 m/s | - | - |
| 1778021621 | 11.67° C | 38% | 978 hPa | 0 mm | 0 m/s | - | - |
| 1778021320 | 11.67° C | 38% | 978.1 hPa | 0 mm | 0 m/s | - | - |
| 1778021019 | 11.67° C | 38% | 978 hPa | 0 mm | 0 m/s | - | - |
| 1778020719 | 11.67° C | 37% | 977.9 hPa | 0 mm | 0 m/s | - | - |
| 1778020418 | 12.22° C | 35% | 978 hPa | 0 mm | 0.89 m/s, 275° | - | - |
| 1778020117 | 12.78° C | 35% | 977.7 hPa | 0 mm | 0.89 m/s, 282° | - | - |
| 1778019816 | 12.22° C | 35% | 977.8 hPa | 0 mm | 0 m/s | - | - |
| 1778019515 | 11.67° C | 37% | 977.7 hPa | 0 mm | 0 m/s | - | - |
| 1778019215 | 11.67° C | 36% | 977.7 hPa | 0 mm | 0 m/s | - | - |
| 1778018914 | 11.67° C | 35% | 977.6 hPa | 0 mm | 0 m/s | - | - |
| 1778018613 | 11.67° C | 36% | 977.7 hPa | 0 mm | 0 m/s | - | - |
| 1778018312 | 12.22° C | 35% | 977.8 hPa | 0 mm | 0 m/s | - | - |
* Rain latest hour (hover to see other rain measurements)
** Current wind speed in m/s (hover to see current wind gust speed)